Simultaneous Nadir Overpasses (SNOs) Predictions

Prediction of SNOs between GOES-16 and LANDSAT-8 Satellite Orbit:

Table of predicted SNOs for the next 14.0 days since TLE Epoch: 9/10/2022
Index Date Time (GOES-16) GOES-16 Lat,Lon LANDSAT-8 Lat,Lon Distance(km) Time Diff (sec)
1 09/11/2022 02:58:02 0.04, -75.19 0.75, -71.74 391.42 80
2 09/11/2022 15:19:18 -0.04, -75.20 0.33, -76.90 193.47 80
3 09/13/2022 15:09:48 -0.04, -75.22 -0.33, -73.95 144.22 80
4 09/14/2022 03:31:12 0.04, -75.21 -0.81, -79.14 446.79 80
5 09/15/2022 14:57:37 -0.04, -75.24 -0.93, -70.99 482.38 80
6 09/16/2022 03:19:02 0.04, -75.23 -0.14, -76.19 108.55 80
7 09/18/2022 03:04:11 0.03, -75.26 0.47, -73.23 230.18 80
8 09/18/2022 15:25:27 -0.03, -75.27 0.60, -78.39 354.39 80
9 09/20/2022 15:13:16 -0.03, -75.30 -0.02, -75.44 15.15 80
10 09/22/2022 15:01:05 -0.02, -75.34 -0.65, -72.48 325.11 80
11 09/23/2022 03:25:09 0.02, -75.34 -0.47, -77.67 265.04 80
